TimeEDT,TemperatureF,Dew PointF,Humidity,Sea Level PressureIn,VisibilityMPH,Wind Direction,Wind SpeedMPH,Gust SpeedMPH,PrecipitationIn,Events,Conditions,WindDirDegrees,DateUTC
12:16 AM,71.6,69.8,94,29.86,4.0,SSE,3.5,-,N/A,,Overcast,160,2012-08-02 04:16:00
12:56 AM,71.1,69.1,93,29.86,3.0,Calm,Calm,-,N/A,,Overcast,0,2012-08-02 04:56:00
1:05 AM,71.6,69.8,94,29.86,2.0,Calm,Calm,-,N/A,,Overcast,0,2012-08-02 05:05:00
1:20 AM,71.6,69.8,94,29.85,3.0,Calm,Calm,-,N/A,,Overcast,0,2012-08-02 05:20:00
1:56 AM,71.1,69.1,93,29.84,5.0,Calm,Calm,-,N/A,,Overcast,0,2012-08-02 05:56:00
2:38 AM,71.6,69.8,94,29.84,5.0,Calm,Calm,-,N/A,,Overcast,0,2012-08-02 06:38:00
2:56 AM,71.1,69.1,93,29.84,6.0,Calm,Calm,-,N/A,,Overcast,0,2012-08-02 06:56:00
3:07 AM,71.6,69.8,94,29.84,5.0,Calm,Calm,-,N/A,,Overcast,0,2012-08-02 07:07:00
3:25 AM,71.6,69.8,94,29.83,6.0,Calm,Calm,-,N/A,,Overcast,0,2012-08-02 07:25:00
3:56 AM,71.1,69.1,93,29.83,4.0,Calm,Calm,-,N/A,,Mostly Cloudy,0,2012-08-02 07:56:00
4:05 AM,71.6,69.8,94,29.83,4.0,Calm,Calm,-,N/A,,Mostly Cloudy,0,2012-08-02 08:05:00
4:56 AM,71.1,69.1,93,29.83,4.0,Calm,Calm,-,N/A,,Overcast,0,2012-08-02 08:56:00
5:14 AM,71.6,69.8,94,29.84,4.0,Calm,Calm,-,N/A,,Overcast,0,2012-08-02 09:14:00
5:32 AM,71.6,69.8,94,29.84,6.0,Calm,Calm,-,N/A,,Overcast,0,2012-08-02 09:32:00
5:43 AM,71.6,69.8,94,29.84,5.0,Calm,Calm,-,N/A,,Scattered Clouds,0,2012-08-02 09:43:00
5:56 AM,71.1,69.1,93,29.85,4.0,Calm,Calm,-,N/A,,Mostly Cloudy,0,2012-08-02 09:56:00
6:26 AM,71.6,69.8,94,29.85,1.5,Calm,Calm,-,N/A,,Overcast,0,2012-08-02 10:26:00
6:33 AM,71.6,69.8,94,29.85,0.5,South,3.5,-,N/A,Fog,Fog,180,2012-08-02 10:33:00
6:40 AM,71.6,69.8,94,29.85,0.2,South,3.5,-,N/A,Fog,Fog,190,2012-08-02 10:40:00
6:56 AM,71.1,69.1,93,29.86,0.2,South,3.5,-,N/A,Fog,Fog,190,2012-08-02 10:56:00
7:18 AM,71.6,69.8,94,29.86,0.5,South,4.6,-,N/A,Fog,Fog,170,2012-08-02 11:18:00
7:29 AM,71.6,69.8,94,29.86,0.2,Calm,Calm,-,N/A,Fog,Fog,0,2012-08-02 11:29:00
7:40 AM,71.6,69.8,94,29.87,0.5,Calm,Calm,-,N/A,Fog,Fog,0,2012-08-02 11:40:00
7:49 AM,71.6,69.8,94,29.87,1.8,SSW,3.5,-,N/A,,Overcast,200,2012-08-02 11:49:00
7:56 AM,71.1,70.0,96,29.87,1.5,Calm,Calm,-,N/A,,Overcast,0,2012-08-02 11:56:00
8:06 AM,71.6,69.8,94,29.87,0.2,South,4.6,-,N/A,Fog,Fog,170,2012-08-02 12:06:00
8:14 AM,71.6,69.8,94,29.87,0.2,South,4.6,-,N/A,Fog,Fog,190,2012-08-02 12:14:00
8:45 AM,71.6,69.8,94,29.87,0.5,South,3.5,-,N/A,Fog,Fog,180,2012-08-02 12:45:00
8:51 AM,71.6,69.8,94,29.87,2.0,SSW,3.5,-,N/A,,Overcast,200,2012-08-02 12:51:00
8:56 AM,72.0,70.0,93,29.87,4.0,South,3.5,-,N/A,,Overcast,190,2012-08-02 12:56:00
9:15 AM,73.4,69.8,88,29.87,5.0,SSW,5.8,-,N/A,,Mostly Cloudy,200,2012-08-02 13:15:00
9:38 AM,71.6,69.8,94,29.87,2.0,SSW,6.9,-,N/A,,Mostly Cloudy,200,2012-08-02 13:38:00
9:52 AM,71.6,69.8,94,29.87,0.8,South,5.8,-,N/A,,Overcast,190,2012-08-02 13:52:00
9:53 AM,73.0,71.1,93,29.87,0.8,South,5.8,-,N/A,,Overcast,190,2012-08-02 13:53:00
10:01 AM,71.6,69.8,94,29.87,0.2,South,5.8,-,N/A,Fog,Fog,190,2012-08-02 14:01:00
10:15 AM,73.4,69.8,88,29.87,0.5,South,8.1,-,N/A,Fog,Fog,180,2012-08-02 14:15:00
10:23 AM,73.4,71.6,94,29.87,2.5,South,8.1,-,N/A,,Mostly Cloudy,180,2012-08-02 14:23:00
10:28 AM,73.4,71.6,94,29.87,5.0,South,8.1,-,N/A,,Scattered Clouds,180,2012-08-02 14:28:00
10:56 AM,75.2,71.6,89,29.88,6.0,SSW,6.9,-,N/A,,Haze,200,2012-08-02 14:56:00
11:56 AM,77.0,71.1,82,29.88,6.0,South,6.9,-,N/A,,Haze,180,2012-08-02 15:56:00
12:56 PM,77.0,72.0,84,29.87,6.0,SSW,9.2,-,N/A,,Haze,200,2012-08-02 16:56:00
1:56 PM,77.0,71.1,82,29.87,6.0,South,8.1,-,N/A,,Haze,180,2012-08-02 17:56:00
2:56 PM,79.0,69.1,72,29.86,6.0,South,6.9,-,N/A,,Haze,180,2012-08-02 18:56:00
3:56 PM,79.0,70.0,74,29.86,6.0,SSW,5.8,-,N/A,,Haze,200,2012-08-02 19:56:00
4:56 PM,80.1,70.0,71,29.86,6.0,SW,8.1,-,N/A,,Haze,220,2012-08-02 20:56:00
5:56 PM,80.1,71.1,74,29.86,6.0,SW,5.8,-,N/A,,Haze,220,2012-08-02 21:56:00
6:56 PM,77.0,70.0,79,29.87,5.0,SW,6.9,-,N/A,,Haze,220,2012-08-02 22:56:00
7:56 PM,73.9,70.0,87,29.88,5.0,SSW,9.2,-,N/A,,Clear,210,2012-08-02 23:56:00
8:56 PM,73.9,70.0,87,29.90,6.0,SW,3.5,-,N/A,,Clear,220,2012-08-03 00:56:00
9:56 PM,73.9,70.0,87,29.92,6.0,SW,4.6,-,N/A,,Clear,230,2012-08-03 01:56:00
10:56 PM,73.0,70.0,90,29.92,6.0,WSW,3.5,-,N/A,,Clear,250,2012-08-03 02:56:00
11:56 PM,73.0,70.0,90,29.92,6.0,SSW,3.5,-,N/A,,Clear,210,2012-08-03 03:56:00